DCS065 EGEP-EDKL

Flight info

Callsign DCS065
Flight time N/A
Altitude 6000
Route KOKAL/N0162F070 DCT OVDAN DCT GIBSU DCT SUTEB DCT BEDUM DCT DIXAT/N0161F060
Aircraft DA62/L-SDFGRY/C

Departure

Time 2026-04-20 14:52
Airport Papa Westray Airport (EGEP)

Arrival

Time N/A
Airport Leverkusen Airfield (EDKL)
Time Latitude Longitude Altitude Speed Heading
2026-04-20 14:50 59.34916 -2.90237 90 ft 8 kts 225°
2026-04-20 14:51 59.34904 -2.90221 91 ft 0 kts 49°
2026-04-20 14:51 59.34906 -2.90219 91 ft 0 kts 21°
2026-04-20 14:51 59.35017 -2.90119 88 ft 51 kts 30°
2026-04-20 14:51 59.35452 -2.89625 228 ft 82 kts 38°
2026-04-20 14:52 59.36052 -2.89217 629 ft 92 kts 27°
2026-04-20 14:52 59.36639 -2.88841 1020 ft 85 kts 47°
2026-04-20 14:52 59.36882 -2.87939 1418 ft 75 kts 79°
2026-04-20 14:52 59.36896 -2.86979 1812 ft 70 kts 107°
2026-04-20 14:53 59.36734 -2.86237 2152 ft 68 kts 127°
2026-04-20 14:53 59.36419 -2.85532 2530 ft 69 kts 129°
2026-04-20 14:53 59.36100 -2.84818 2910 ft 70 kts 129°
2026-04-20 14:53 59.35780 -2.84096 3252 ft 71 kts 128°
2026-04-20 14:54 59.35455 -2.83358 3594 ft 72 kts 128°
2026-04-20 14:54 59.35128 -2.82613 3930 ft 72 kts 128°
2026-04-20 14:54 59.34783 -2.81824 4179 ft 84 kts 128°
2026-04-20 14:54 59.34357 -2.80852 4281 ft 104 kts 128°
2026-04-20 14:55 59.33883 -2.79768 4591 ft 104 kts 128°
2026-04-20 14:55 59.33407 -2.78679 4914 ft 104 kts 128°
2026-04-20 14:55 59.32942 -2.77612 5226 ft 104 kts 128°
2026-04-20 14:55 59.32463 -2.76517 5538 ft 105 kts 128°
2026-04-20 14:56 59.31989 -2.75433 5850 ft 105 kts 128°
2026-04-20 14:56 59.31513 -2.74344 6170 ft 105 kts 128°
2026-04-20 14:56 59.31035 -2.73253 6501 ft 106 kts 128°
2026-04-20 14:56 59.30555 -2.72159 6831 ft 106 kts 127°
2026-04-20 14:57 59.30074 -2.71060 7145 ft 107 kts 127°
2026-04-20 14:57 59.29589 -2.69954 7452 ft 107 kts 127°
2026-04-20 14:57 59.29100 -2.68840 7762 ft 108 kts 127°
2026-04-20 14:57 59.28601 -2.67701 8054 ft 112 kts 127°
2026-04-20 14:58 59.28092 -2.66541 8365 ft 112 kts 127°
2026-04-20 14:58 59.27581 -2.65378 8685 ft 113 kts 127°
2026-04-20 14:58 59.27070 -2.64214 9007 ft 113 kts 127°
2026-04-20 14:58 59.26555 -2.63044 9334 ft 113 kts 127°
2026-04-20 14:59 59.26040 -2.61872 9666 ft 114 kts 127°
2026-04-20 14:59 59.25522 -2.60697 9998 ft 114 kts 127°
2026-04-20 14:59 59.25003 -2.59519 10326 ft 115 kts 127°
2026-04-20 14:59 59.24482 -2.58335 10641 ft 115 kts 127°
2026-04-20 15:00 59.23957 -2.57142 10949 ft 116 kts 127°
2026-04-20 15:00 59.23428 -2.55945 11251 ft 117 kts 128°
2026-04-20 15:00 59.22896 -2.54737 11571 ft 117 kts 127°
2026-04-20 15:00 59.22362 -2.53528 11892 ft 118 kts 127°
2026-04-20 15:01 59.21821 -2.52304 12195 ft 120 kts 127°
2026-04-20 15:01 59.21274 -2.51066 12523 ft 120 kts 127°
2026-04-20 15:01 59.20725 -2.49824 12850 ft 121 kts 127°
2026-04-20 15:01 59.20170 -2.48570 13173 ft 123 kts 127°
2026-04-20 15:02 59.19609 -2.47303 13507 ft 124 kts 127°
2026-04-20 15:02 59.19046 -2.46031 13850 ft 124 kts 127°
2026-04-20 15:02 59.18482 -2.44757 14197 ft 124 kts 126°
2026-04-20 15:02 59.17913 -2.43474 14491 ft 126 kts 126°
2026-04-20 15:03 59.17340 -2.42182 14784 ft 126 kts 126°
2026-04-20 15:03 59.16766 -2.40889 15065 ft 126 kts 126°
2026-04-20 15:03 59.16188 -2.39588 15336 ft 127 kts 126°
2026-04-20 15:03 59.15589 -2.38236 15431 ft 140 kts 127°
2026-04-20 15:04 59.14925 -2.36734 15435 ft 151 kts 127°
2026-04-20 15:04 59.14219 -2.35157 15444 ft 157 kts 127°
2026-04-20 15:04 59.13497 -2.33535 15438 ft 160 kts 127°
2026-04-20 15:04 59.12763 -2.31888 15430 ft 162 kts 127°
2026-04-20 15:05 59.12021 -2.30226 15440 ft 163 kts 127°
2026-04-20 15:05 59.11273 -2.28549 15443 ft 164 kts 127°
2026-04-20 15:05 59.10521 -2.26865 15443 ft 165 kts 127°
2026-04-20 15:05 59.09766 -2.25177 15443 ft 165 kts 127°
2026-04-20 15:06 59.09011 -2.23487 15443 ft 166 kts 127°
2026-04-20 15:06 59.08253 -2.21795 15436 ft 166 kts 127°
2026-04-20 15:06 59.07496 -2.20104 15444 ft 166 kts 127°
2026-04-20 15:06 59.06737 -2.18410 15438 ft 166 kts 127°
2026-04-20 15:07 59.05976 -2.16713 15446 ft 166 kts 127°
2026-04-20 15:07 59.05216 -2.15019 15446 ft 166 kts 127°
2026-04-20 15:07 59.04456 -2.13326 15446 ft 166 kts 127°
2026-04-20 15:07 59.03693 -2.11631 15433 ft 166 kts 127°
2026-04-20 15:08 59.02933 -2.09940 15443 ft 166 kts 127°
2026-04-20 15:08 59.02172 -2.08250 15443 ft 166 kts 127°
2026-04-20 15:08 59.01409 -2.06555 15442 ft 167 kts 127°
2026-04-20 15:08 59.00645 -2.04860 15437 ft 167 kts 128°
2026-04-20 15:09 58.99881 -2.03168 15442 ft 167 kts 128°
2026-04-20 15:09 58.99118 -2.01478 15442 ft 166 kts 128°
2026-04-20 15:09 58.98356 -1.99791 15442 ft 166 kts 128°
2026-04-20 15:09 58.97593 -1.98104 15442 ft 166 kts 128°
2026-04-20 15:10 58.96832 -1.96420 15441 ft 166 kts 128°
2026-04-20 15:10 58.96328 -1.95307 15441 ft 166 kts 128°
2026-04-20 15:10 58.95566 -1.93626 15441 ft 166 kts 128°
2026-04-20 15:10 58.94805 -1.91948 15436 ft 166 kts 128°
2026-04-20 15:11 58.94043 -1.90267 15442 ft 166 kts 128°
2026-04-20 15:11 58.93282 -1.88590 15439 ft 166 kts 128°
2026-04-20 15:11 58.92521 -1.86916 15439 ft 166 kts 128°
2026-04-20 15:11 58.91760 -1.85243 15436 ft 165 kts 128°
2026-04-20 15:12 58.90999 -1.83569 15432 ft 165 kts 128°
2026-04-20 15:12 58.90239 -1.81900 15437 ft 165 kts 128°
2026-04-20 15:12 58.89477 -1.80228 15437 ft 165 kts 128°
2026-04-20 15:12 58.88717 -1.78560 15437 ft 165 kts 128°
2026-04-20 15:13 58.87956 -1.76892 15437 ft 165 kts 128°
2026-04-20 15:13 58.87194 -1.75225 15442 ft 165 kts 128°
2026-04-20 15:13 58.86433 -1.73558 15442 ft 165 kts 128°
2026-04-20 15:13 58.85671 -1.71892 15442 ft 165 kts 128°
2026-04-20 15:14 58.84908 -1.70226 15445 ft 166 kts 128°
2026-04-20 15:14 58.84145 -1.68558 15445 ft 166 kts 128°
2026-04-20 15:14 58.83382 -1.66893 15445 ft 166 kts 128°
2026-04-20 15:14 58.82618 -1.65227 15445 ft 166 kts 128°
2026-04-20 15:15 58.81852 -1.63559 15439 ft 166 kts 128°
2026-04-20 15:15 58.81087 -1.61893 15443 ft 166 kts 128°
2026-04-20 15:15 58.80322 -1.60228 15439 ft 166 kts 128°
2026-04-20 15:15 58.79556 -1.58562 15437 ft 166 kts 128°
2026-04-20 15:16 58.78790 -1.56899 15441 ft 166 kts 128°
2026-04-20 15:16 58.78025 -1.55238 15435 ft 166 kts 128°
2026-04-20 15:16 58.77258 -1.53574 15441 ft 166 kts 128°
2026-04-20 15:16 58.76493 -1.51915 15436 ft 166 kts 128°
2026-04-20 15:17 58.75726 -1.50253 15448 ft 166 kts 128°
2026-04-20 15:17 58.74960 -1.48594 15448 ft 166 kts 128°
2026-04-20 15:17 58.74194 -1.46936 15448 ft 166 kts 128°
2026-04-20 15:17 58.73426 -1.45276 15448 ft 166 kts 128°
2026-04-20 15:18 58.72658 -1.43619 15446 ft 166 kts 128°
2026-04-20 15:18 58.71891 -1.41962 15436 ft 166 kts 128°
2026-04-20 15:18 58.71123 -1.40306 15446 ft 166 kts 128°
2026-04-20 15:18 58.70355 -1.38651 15446 ft 166 kts 128°
2026-04-20 15:19 58.69587 -1.36996 15436 ft 166 kts 128°
2026-04-20 15:19 58.68818 -1.35342 15435 ft 166 kts 128°
2026-04-20 15:19 58.68050 -1.33688 15440 ft 166 kts 128°
2026-04-20 15:19 58.67280 -1.32034 15440 ft 166 kts 128°
2026-04-20 15:20 58.66501 -1.30360 15435 ft 166 kts 128°
2026-04-20 15:20 58.65731 -1.28707 15440 ft 166 kts 128°
2026-04-20 15:20 58.64962 -1.27058 15440 ft 166 kts 128°
2026-04-20 15:20 58.64191 -1.25405 15431 ft 166 kts 128°
2026-04-20 15:21 58.63423 -1.23758 15434 ft 165 kts 129°
2026-04-20 15:21 58.62656 -1.22119 15440 ft 165 kts 129°
2026-04-20 15:21 58.61891 -1.20483 15440 ft 165 kts 129°
2026-04-20 15:21 58.61126 -1.18848 15440 ft 165 kts 129°
2026-04-20 15:22 58.60361 -1.17214 15438 ft 164 kts 129°
2026-04-20 15:22 58.59598 -1.15585 15439 ft 164 kts 129°
2026-04-20 15:22 58.58832 -1.13954 15439 ft 164 kts 129°
2026-04-20 15:22 58.58068 -1.12325 15428 ft 164 kts 129°
2026-04-20 15:23 58.57303 -1.10696 15428 ft 164 kts 129°
2026-04-20 15:23 58.56539 -1.09069 15428 ft 164 kts 129°
2026-04-20 15:23 58.55774 -1.07443 15435 ft 164 kts 129°
2026-04-20 15:23 58.55010 -1.05818 15435 ft 164 kts 129°
2026-04-20 15:24 58.54245 -1.04193 15434 ft 164 kts 129°
2026-04-20 15:24 58.53480 -1.02570 15434 ft 164 kts 129°
2026-04-20 15:24 58.52713 -1.00945 15434 ft 164 kts 129°
2026-04-20 15:24 58.51948 -0.99323 15430 ft 164 kts 129°
2026-04-20 15:25 58.51182 -0.97702 15430 ft 164 kts 129°
2026-04-20 15:25 58.50417 -0.96083 15437 ft 164 kts 129°
2026-04-20 15:25 58.49652 -0.94465 15431 ft 164 kts 129°
2026-04-20 15:25 58.48886 -0.92847 15431 ft 164 kts 129°
2026-04-20 15:26 58.48121 -0.91230 15433 ft 164 kts 129°
2026-04-20 15:26 58.47355 -0.89613 15451 ft 164 kts 129°
2026-04-20 15:26 58.46588 -0.87997 15445 ft 164 kts 129°
2026-04-20 15:26 58.45819 -0.86376 15445 ft 164 kts 129°
2026-04-20 15:27 58.45050 -0.84757 15438 ft 164 kts 129°
2026-04-20 15:27 58.44281 -0.83137 15440 ft 165 kts 129°
2026-04-20 15:27 58.43511 -0.81520 15440 ft 165 kts 129°
2026-04-20 15:27 58.42743 -0.79905 15445 ft 165 kts 129°
2026-04-20 15:28 58.41972 -0.78287 15433 ft 165 kts 130°
2026-04-20 15:28 58.41201 -0.76669 15442 ft 165 kts 130°
2026-04-20 15:28 58.40431 -0.75053 15437 ft 165 kts 130°
2026-04-20 15:28 58.39659 -0.73436 15442 ft 165 kts 130°
2026-04-20 15:29 58.38887 -0.71818 15451 ft 165 kts 130°
2026-04-20 15:29 58.38114 -0.70202 15451 ft 165 kts 130°
2026-04-20 15:29 58.37343 -0.68588 15446 ft 165 kts 130°
2026-04-20 15:29 58.36570 -0.66975 15451 ft 165 kts 130°
2026-04-20 15:30 58.35798 -0.65363 15443 ft 165 kts 130°
2026-04-20 15:30 58.35026 -0.63752 15443 ft 165 kts 130°
2026-04-20 15:30 58.34253 -0.62141 15439 ft 165 kts 130°
2026-04-20 15:30 58.33481 -0.60532 15443 ft 165 kts 130°
2026-04-20 15:31 58.32710 -0.58925 15443 ft 165 kts 130°
2026-04-20 15:31 58.31937 -0.57316 15443 ft 164 kts 130°
2026-04-20 15:31 58.31164 -0.55708 15443 ft 164 kts 130°
2026-04-20 15:31 58.30391 -0.54103 15443 ft 164 kts 130°
2026-04-20 15:32 58.29619 -0.52499 15446 ft 164 kts 130°
2026-04-20 15:32 58.28855 -0.50916 15446 ft 164 kts 130°
2026-04-20 15:32 58.28082 -0.49312 15451 ft 164 kts 130°
2026-04-20 15:32 58.27309 -0.47710 15451 ft 164 kts 130°
2026-04-20 15:33 58.26525 -0.46088 15449 ft 164 kts 130°
2026-04-20 15:33 58.25763 -0.44509 15449 ft 164 kts 130°
2026-04-20 15:33 58.24989 -0.42908 15441 ft 164 kts 130°
2026-04-20 15:33 58.24215 -0.41310 15441 ft 164 kts 130°
2026-04-20 15:34 58.23441 -0.39712 15433 ft 164 kts 130°
2026-04-20 15:34 58.22668 -0.38117 15434 ft 164 kts 130°
2026-04-20 15:34 58.21894 -0.36519 15436 ft 164 kts 130°
2026-04-20 15:34 58.21119 -0.34923 15440 ft 164 kts 130°
2026-04-20 15:35 58.20345 -0.33329 15440 ft 164 kts 130°
2026-04-20 15:35 58.19568 -0.31730 15447 ft 165 kts 130°
2026-04-20 15:35 58.18790 -0.30130 15447 ft 165 kts 130°
2026-04-20 15:35 58.18012 -0.28531 15447 ft 165 kts 130°
2026-04-20 15:36 58.17232 -0.26930 15442 ft 165 kts 130°
2026-04-20 15:36 58.16456 -0.25336 15442 ft 165 kts 130°
2026-04-20 15:36 58.15677 -0.23740 15442 ft 165 kts 130°
2026-04-20 15:36 58.14900 -0.22146 15442 ft 165 kts 130°
2026-04-20 15:37 58.14123 -0.20555 15439 ft 164 kts 130°
2026-04-20 15:37 58.13346 -0.18966 15439 ft 164 kts 130°
2026-04-20 15:37 58.12569 -0.17378 15439 ft 164 kts 130°
2026-04-20 15:37 58.11792 -0.15789 15439 ft 164 kts 130°
2026-04-20 15:38 58.11014 -0.14201 15439 ft 164 kts 130°
2026-04-20 15:38 58.10238 -0.12618 15439 ft 164 kts 130°
2026-04-20 15:38 58.09461 -0.11031 15439 ft 164 kts 130°
2026-04-20 15:38 58.08682 -0.09445 15439 ft 164 kts 130°
2026-04-20 15:39 58.07904 -0.07859 15439 ft 164 kts 130°
2026-04-20 15:39 58.07126 -0.06277 15439 ft 164 kts 130°
2026-04-20 15:39 58.06347 -0.04693 15439 ft 164 kts 130°
2026-04-20 15:39 58.05569 -0.03112 15439 ft 164 kts 130°
2026-04-20 15:40 58.04790 -0.01530 15437 ft 164 kts 130°
2026-04-20 15:40 58.04013 0.00049 15433 ft 164 kts 131°
2026-04-20 15:40 58.03236 0.01624 15430 ft 164 kts 131°
2026-04-20 15:40 58.02462 0.03193 15430 ft 163 kts 131°
2026-04-20 15:41 58.01688 0.04760 15429 ft 163 kts 131°
2026-04-20 15:41 58.00916 0.06324 15429 ft 163 kts 131°
2026-04-20 15:41 58.00144 0.07886 15429 ft 163 kts 131°
2026-04-20 15:41 57.99371 0.09447 15429 ft 163 kts 131°
2026-04-20 15:42 57.98598 0.11010 15429 ft 163 kts 131°
2026-04-20 15:42 57.97825 0.12569 15429 ft 163 kts 131°
2026-04-20 15:42 57.97054 0.14125 15429 ft 163 kts 131°
2026-04-20 15:42 57.96280 0.15684 15429 ft 163 kts 131°
2026-04-20 15:43 57.95507 0.17242 15430 ft 163 kts 131°
2026-04-20 15:43 57.94734 0.18798 15430 ft 163 kts 131°
2026-04-20 15:43 57.93961 0.20352 15430 ft 163 kts 131°
2026-04-20 15:43 57.93449 0.21382 15430 ft 163 kts 131°
2026-04-20 15:44 57.92677 0.22935 15429 ft 162 kts 131°
2026-04-20 15:44 57.91903 0.24489 15440 ft 163 kts 131°
2026-04-20 15:44 57.91130 0.26040 15440 ft 163 kts 131°
2026-04-20 15:44 57.90356 0.27593 15440 ft 163 kts 131°
2026-04-20 15:45 57.89583 0.29141 15445 ft 163 kts 131°
2026-04-20 15:45 57.88824 0.30719 15445 ft 162 kts 126°
2026-04-20 15:45 57.88201 0.32483 15445 ft 162 kts 123°
2026-04-20 15:45 57.87571 0.34242 15445 ft 162 kts 123°
2026-04-20 15:46 57.86942 0.35997 15442 ft 162 kts 123°
2026-04-20 15:46 57.86313 0.37752 15442 ft 162 kts 123°
2026-04-20 15:46 57.85684 0.39510 15442 ft 162 kts 123°
2026-04-20 15:46 57.85055 0.41266 15442 ft 162 kts 123°
2026-04-20 15:47 57.84424 0.43023 15443 ft 162 kts 123°
2026-04-20 15:47 57.83794 0.44779 15443 ft 162 kts 123°
2026-04-20 15:47 57.83164 0.46535 15443 ft 162 kts 123°
2026-04-20 15:47 57.82533 0.48290 15443 ft 162 kts 123°
2026-04-20 15:48 57.81902 0.50045 15443 ft 162 kts 123°
2026-04-20 15:48 57.81270 0.51801 15440 ft 162 kts 123°
2026-04-20 15:48 57.80638 0.53554 15440 ft 162 kts 123°
2026-04-20 15:48 57.80005 0.55311 15440 ft 162 kts 123°
2026-04-20 15:49 57.79373 0.57065 15437 ft 162 kts 123°
2026-04-20 15:49 57.78739 0.58820 15437 ft 162 kts 123°
2026-04-20 15:49 57.78106 0.60574 15436 ft 162 kts 123°
2026-04-20 15:49 57.77474 0.62322 15425 ft 162 kts 123°
2026-04-20 15:50 57.76843 0.64065 15427 ft 162 kts 123°
2026-04-20 15:50 57.76212 0.65808 15427 ft 161 kts 123°
2026-04-20 15:50 57.75583 0.67545 15427 ft 161 kts 123°
2026-04-20 15:50 57.74952 0.69283 15427 ft 161 kts 123°
2026-04-20 15:51 57.74324 0.71017 15427 ft 161 kts 123°
2026-04-20 15:51 57.73692 0.72755 15432 ft 161 kts 123°
2026-04-20 15:51 57.73062 0.74490 15432 ft 161 kts 123°
2026-04-20 15:51 57.72431 0.76226 15432 ft 161 kts 123°
2026-04-20 15:52 57.71801 0.77959 15432 ft 161 kts 123°
2026-04-20 15:52 57.71169 0.79693 15432 ft 161 kts 123°
2026-04-20 15:52 57.70539 0.81423 15432 ft 161 kts 123°
2026-04-20 15:53 57.69274 0.84889 15422 ft 161 kts 123°
2026-04-20 15:53 57.68642 0.86621 15422 ft 161 kts 123°
2026-04-20 15:53 57.68010 0.88349 15422 ft 161 kts 123°
2026-04-20 15:53 57.67377 0.90081 15422 ft 161 kts 123°
2026-04-20 15:54 57.66744 0.91810 15421 ft 161 kts 123°
2026-04-20 15:54 57.66111 0.93539 15421 ft 161 kts 123°
2026-04-20 15:54 57.65476 0.95270 15421 ft 161 kts 123°
2026-04-20 15:54 57.64843 0.96999 15445 ft 161 kts 123°
2026-04-20 15:55 57.64208 0.98729 15445 ft 161 kts 123°
2026-04-20 15:55 57.63573 1.00456 15445 ft 161 kts 123°
2026-04-20 15:55 57.62938 1.02184 15445 ft 161 kts 123°
2026-04-20 15:55 57.62303 1.03910 15445 ft 161 kts 123°
2026-04-20 15:56 57.61667 1.05637 15442 ft 161 kts 123°
2026-04-20 15:56 57.61032 1.07361 15442 ft 161 kts 123°
2026-04-20 15:56 57.60396 1.09088 15442 ft 161 kts 123°
2026-04-20 15:56 57.59761 1.10809 15442 ft 161 kts 123°
2026-04-20 15:57 57.59124 1.12533 15437 ft 161 kts 123°
2026-04-20 15:57 57.58488 1.14255 15437 ft 161 kts 123°
2026-04-20 15:57 57.57851 1.15980 15437 ft 161 kts 123°
2026-04-20 15:57 57.57214 1.17702 15437 ft 161 kts 123°
2026-04-20 15:58 57.56576 1.19425 15434 ft 161 kts 123°
2026-04-20 15:58 57.55938 1.21146 15424 ft 162 kts 123°
2026-04-20 15:58 57.55299 1.22871 15424 ft 162 kts 123°
2026-04-20 15:58 57.54657 1.24600 15424 ft 162 kts 123°
2026-04-20 15:59 57.54016 1.26328 15427 ft 162 kts 123°
2026-04-20 15:59 57.53374 1.28056 15427 ft 162 kts 123°
2026-04-20 15:59 57.52730 1.29786 15427 ft 162 kts 123°
2026-04-20 15:59 57.52086 1.31517 15427 ft 162 kts 123°
2026-04-20 16:00 57.51443 1.33244 15425 ft 162 kts 123°
2026-04-20 16:00 57.50801 1.34968 15425 ft 162 kts 123°
2026-04-20 16:00 57.50157 1.36694 15425 ft 162 kts 123°
2026-04-20 16:00 57.49514 1.38418 15425 ft 162 kts 123°
2026-04-20 16:01 57.48870 1.40144 15426 ft 162 kts 123°
2026-04-20 16:01 57.48227 1.41865 15426 ft 162 kts 123°
2026-04-20 16:01 57.47582 1.43588 15423 ft 162 kts 123°
2026-04-20 16:01 57.46936 1.45313 15423 ft 162 kts 123°
2026-04-20 16:02 57.46290 1.47037 15423 ft 162 kts 123°
2026-04-20 16:02 57.45646 1.48757 15423 ft 162 kts 123°
2026-04-20 16:02 57.45000 1.50480 15423 ft 162 kts 123°
2026-04-20 16:02 57.44355 1.52199 15423 ft 162 kts 123°
2026-04-20 16:03 57.43708 1.53921 15423 ft 162 kts 123°
2026-04-20 16:03 57.43061 1.55642 15423 ft 162 kts 123°
2026-04-20 16:03 57.42414 1.57364 15423 ft 163 kts 123°
2026-04-20 16:03 57.41767 1.59082 15423 ft 163 kts 123°
2026-04-20 16:04 57.41119 1.60803 15423 ft 163 kts 123°
2026-04-20 16:04 57.40471 1.62523 15423 ft 162 kts 123°
2026-04-20 16:04 57.39823 1.64240 15423 ft 162 kts 123°
2026-04-20 16:04 57.39175 1.65957 15423 ft 162 kts 123°
2026-04-20 16:05 57.38527 1.67672 15426 ft 162 kts 124°
2026-04-20 16:05 57.37878 1.69389 15426 ft 162 kts 124°
2026-04-20 16:05 57.37230 1.71104 15426 ft 162 kts 124°
2026-04-20 16:05 57.36581 1.72816 15434 ft 162 kts 124°
2026-04-20 16:06 57.35934 1.74526 15437 ft 162 kts 124°
2026-04-20 16:06 57.35288 1.76230 15436 ft 162 kts 124°
2026-04-20 16:06 57.34642 1.77933 15436 ft 161 kts 124°
2026-04-20 16:06 57.33996 1.79632 15427 ft 162 kts 124°
2026-04-20 16:07 57.33348 1.81339 15425 ft 162 kts 124°
2026-04-20 16:07 57.32698 1.83049 15425 ft 162 kts 124°
2026-04-20 16:07 57.32048 1.84758 15425 ft 162 kts 124°
2026-04-20 16:07 57.31397 1.86468 15425 ft 163 kts 124°
2026-04-20 16:08 57.30745 1.88179 15428 ft 163 kts 124°
2026-04-20 16:08 57.30092 1.89893 15428 ft 163 kts 124°
2026-04-20 16:08 57.29438 1.91607 15428 ft 163 kts 124°
2026-04-20 16:08 57.28784 1.93320 15428 ft 163 kts 124°
2026-04-20 16:09 57.28129 1.95035 15428 ft 163 kts 124°
2026-04-20 16:09 57.27475 1.96746 15428 ft 163 kts 124°
2026-04-20 16:09 57.26819 1.98460 15428 ft 163 kts 124°
2026-04-20 16:09 57.26164 2.00170 15428 ft 163 kts 124°
2026-04-20 16:10 57.25508 2.01883 15425 ft 163 kts 124°
2026-04-20 16:10 57.24851 2.03595 15425 ft 163 kts 124°
2026-04-20 16:10 57.24195 2.05305 15425 ft 163 kts 124°
2026-04-20 16:10 57.23539 2.07016 15425 ft 163 kts 124°
2026-04-20 16:11 57.22883 2.08724 15423 ft 163 kts 124°
2026-04-20 16:11 57.22226 2.10431 15423 ft 163 kts 124°
2026-04-20 16:11 57.21569 2.12138 15422 ft 163 kts 124°
2026-04-20 16:11 57.20913 2.13842 15414 ft 163 kts 124°
2026-04-20 16:12 57.20256 2.15546 15412 ft 163 kts 124°
2026-04-20 16:12 57.19600 2.17249 15412 ft 163 kts 124°
2026-04-20 16:12 57.18942 2.18953 15412 ft 163 kts 124°
2026-04-20 16:12 57.18285 2.20655 15412 ft 163 kts 124°
2026-04-20 16:13 57.17628 2.22356 15414 ft 163 kts 124°
2026-04-20 16:13 57.16969 2.24061 15414 ft 163 kts 124°
2026-04-20 16:13 57.16311 2.25760 15414 ft 163 kts 124°
2026-04-20 16:13 57.15652 2.27461 15414 ft 163 kts 124°
2026-04-20 16:14 57.14993 2.29162 15414 ft 163 kts 124°
2026-04-20 16:14 57.14335 2.30860 15414 ft 163 kts 124°
2026-04-20 16:14 57.13676 2.32558 15409 ft 163 kts 124°
2026-04-20 16:14 57.13016 2.34258 15409 ft 163 kts 124°
2026-04-20 16:15 57.12356 2.35955 15408 ft 163 kts 124°
2026-04-20 16:15 57.11696 2.37655 15394 ft 163 kts 124°
2026-04-20 16:15 57.11036 2.39349 15394 ft 163 kts 124°
2026-04-20 16:15 57.10377 2.41041 15394 ft 163 kts 124°
2026-04-20 16:16 57.09941 2.42160 15393 ft 163 kts 124°
2026-04-20 16:16 57.09282 2.43853 15393 ft 162 kts 124°
2026-04-20 16:16 57.08623 2.45540 15406 ft 162 kts 124°
2026-04-20 16:16 57.07964 2.47229 15406 ft 163 kts 124°
2026-04-20 16:17 57.07303 2.48922 15406 ft 163 kts 124°
2026-04-20 16:17 57.06640 2.50618 15406 ft 163 kts 124°
2026-04-20 16:17 57.05976 2.52313 15406 ft 163 kts 124°
2026-04-20 16:17 57.05312 2.54009 15406 ft 163 kts 124°
2026-04-20 16:18 57.04648 2.55704 15409 ft 163 kts 124°
2026-04-20 16:18 57.03984 2.57399 15409 ft 164 kts 124°
2026-04-20 16:18 57.03317 2.59097 15409 ft 164 kts 124°
2026-04-20 16:18 57.02652 2.60790 15393 ft 164 kts 124°
2026-04-20 16:19 57.01986 2.62487 15393 ft 164 kts 124°
2026-04-20 16:19 57.01320 2.64181 15393 ft 164 kts 124°
2026-04-20 16:19 57.00653 2.65877 15393 ft 164 kts 124°
2026-04-20 16:19 56.99986 2.67572 15393 ft 164 kts 124°
2026-04-20 16:20 56.99319 2.69264 15393 ft 164 kts 124°
2026-04-20 16:20 56.98652 2.70956 15393 ft 164 kts 124°
2026-04-20 16:20 56.97985 2.72646 15393 ft 164 kts 124°
2026-04-20 16:20 56.97316 2.74340 15393 ft 164 kts 124°
2026-04-20 16:21 56.96649 2.76028 15393 ft 164 kts 124°
2026-04-20 16:21 56.95981 2.77719 15393 ft 164 kts 124°
2026-04-20 16:21 56.95312 2.79409 15393 ft 164 kts 124°
2026-04-20 16:21 56.94643 2.81098 15393 ft 164 kts 124°
2026-04-20 16:22 56.93966 2.82808 15404 ft 164 kts 124°
2026-04-20 16:22 56.93296 2.84497 15404 ft 164 kts 124°
2026-04-20 16:22 56.92627 2.86184 15404 ft 164 kts 124°
2026-04-20 16:22 56.91957 2.87870 15404 ft 164 kts 124°
2026-04-20 16:23 56.91286 2.89558 15396 ft 164 kts 124°
2026-04-20 16:23 56.90616 2.91244 15396 ft 164 kts 124°
2026-04-20 16:23 56.89945 2.92930 15396 ft 164 kts 124°
2026-04-20 16:23 56.89276 2.94611 15389 ft 163 kts 124°
2026-04-20 16:24 56.88608 2.96287 15387 ft 163 kts 124°
2026-04-20 16:24 56.87943 2.97956 15386 ft 162 kts 124°
2026-04-20 16:24 56.87278 2.99623 15386 ft 162 kts 124°
2026-04-20 16:24 56.86615 3.01284 15386 ft 162 kts 124°
2026-04-20 16:25 56.85951 3.02947 15386 ft 162 kts 124°
2026-04-20 16:25 56.85287 3.04607 15408 ft 162 kts 124°
2026-04-20 16:25 56.84624 3.06265 15408 ft 162 kts 124°
2026-04-20 16:25 56.83960 3.07923 15408 ft 162 kts 124°
2026-04-20 16:26 56.83296 3.09580 15405 ft 162 kts 124°
2026-04-20 16:26 56.82631 3.11238 15405 ft 162 kts 124°
2026-04-20 16:26 56.81968 3.12891 15405 ft 162 kts 124°
2026-04-20 16:26 56.81303 3.14548 15405 ft 162 kts 124°
2026-04-20 16:27 56.80637 3.16205 15408 ft 162 kts 124°
2026-04-20 16:27 56.79972 3.17860 15408 ft 162 kts 124°
2026-04-20 16:27 56.79300 3.19530 15407 ft 163 kts 124°
2026-04-20 16:27 56.78627 3.21203 15407 ft 164 kts 124°
2026-04-20 16:28 56.77954 3.22875 15407 ft 164 kts 124°
2026-04-20 16:28 56.77277 3.24553 15406 ft 164 kts 124°
2026-04-20 16:28 56.76599 3.26228 15405 ft 164 kts 126°
2026-04-20 16:28 56.75765 3.27664 15406 ft 167 kts 141°
2026-04-20 16:29 56.74811 3.28874 15408 ft 167 kts 141°
2026-04-20 16:29 56.73864 3.30096 15408 ft 167 kts 141°
2026-04-20 16:29 56.72914 3.31322 15408 ft 167 kts 141°
2026-04-20 16:29 56.71965 3.32544 15408 ft 167 kts 141°
2026-04-20 16:30 56.71014 3.33766 15410 ft 167 kts 141°
2026-04-20 16:30 56.70065 3.34985 15410 ft 167 kts 141°
2026-04-20 16:30 56.69115 3.36205 15409 ft 167 kts 141°
2026-04-20 16:30 56.68167 3.37422 15401 ft 167 kts 141°
2026-04-20 16:31 56.67218 3.38639 15401 ft 167 kts 141°
2026-04-20 16:31 56.66268 3.39856 15401 ft 167 kts 141°
2026-04-20 16:31 56.65319 3.41072 15400 ft 167 kts 141°
2026-04-20 16:31 56.64370 3.42287 15401 ft 167 kts 141°
2026-04-20 16:32 56.63420 3.43502 15401 ft 167 kts 141°
2026-04-20 16:32 56.62471 3.44714 15401 ft 167 kts 141°
2026-04-20 16:32 56.61520 3.45930 15401 ft 167 kts 141°
2026-04-20 16:32 56.60570 3.47143 15400 ft 167 kts 141°
2026-04-20 16:33 56.59620 3.48355 15389 ft 167 kts 141°
2026-04-20 16:33 56.58672 3.49563 15390 ft 166 kts 141°
2026-04-20 16:33 56.57727 3.50768 15381 ft 166 kts 141°
2026-04-20 16:33 56.56784 3.51970 15381 ft 166 kts 141°
2026-04-20 16:34 56.55840 3.53172 15379 ft 166 kts 141°
2026-04-20 16:34 56.54897 3.54370 15381 ft 165 kts 141°
2026-04-20 16:34 56.53955 3.55568 15381 ft 165 kts 141°
2026-04-20 16:34 56.53012 3.56766 15381 ft 165 kts 141°
2026-04-20 16:35 56.52068 3.57964 15389 ft 165 kts 140°
2026-04-20 16:35 56.51125 3.59161 15391 ft 166 kts 140°
2026-04-20 16:35 56.50179 3.60360 15388 ft 166 kts 140°
2026-04-20 16:35 56.49233 3.61560 15389 ft 166 kts 140°
2026-04-20 16:36 56.48286 3.62760 15391 ft 166 kts 140°
2026-04-20 16:36 56.47336 3.63962 15393 ft 166 kts 140°
2026-04-20 16:36 56.46387 3.65162 15385 ft 166 kts 140°
2026-04-20 16:36 56.45439 3.66361 15385 ft 166 kts 140°
2026-04-20 16:37 56.44489 3.67560 15388 ft 166 kts 140°
2026-04-20 16:37 56.43539 3.68760 15393 ft 167 kts 140°
2026-04-20 16:37 56.42589 3.69959 15391 ft 167 kts 141°
2026-04-20 16:37 56.41638 3.71157 15393 ft 167 kts 141°
2026-04-20 16:38 56.40686 3.72358 15393 ft 167 kts 141°
2026-04-20 16:38 56.39734 3.73557 15392 ft 167 kts 141°
2026-04-20 16:38 56.38781 3.74757 15391 ft 167 kts 141°
2026-04-20 16:38 56.37829 3.75954 15393 ft 167 kts 141°
2026-04-20 16:39 56.36878 3.77150 15392 ft 167 kts 141°
2026-04-20 16:39 56.35925 3.78346 15393 ft 167 kts 141°
2026-04-20 16:39 56.34972 3.79543 15386 ft 167 kts 141°
2026-04-20 16:39 56.34018 3.80739 15388 ft 167 kts 141°
2026-04-20 16:40 56.33067 3.81932 15388 ft 167 kts 141°
2026-04-20 16:40 56.32114 3.83127 15386 ft 167 kts 141°
2026-04-20 16:40 56.31159 3.84323 15388 ft 167 kts 141°
2026-04-20 16:40 56.30207 3.85515 15386 ft 167 kts 141°
2026-04-20 16:41 56.29255 3.86706 15388 ft 167 kts 141°
2026-04-20 16:41 56.28304 3.87894 15388 ft 167 kts 141°
2026-04-20 16:41 56.27351 3.89085 15388 ft 167 kts 141°
2026-04-20 16:41 56.26399 3.90274 15396 ft 167 kts 141°
2026-04-20 16:42 56.25445 3.91464 15396 ft 167 kts 141°
2026-04-20 16:42 56.24492 3.92653 15389 ft 167 kts 141°
2026-04-20 16:42 56.23532 3.93849 15388 ft 168 kts 141°
2026-04-20 16:42 56.22569 3.95049 15388 ft 168 kts 141°
2026-04-20 16:43 56.21606 3.96248 15391 ft 168 kts 141°
2026-04-20 16:43 56.20641 3.97447 15391 ft 168 kts 141°
2026-04-20 16:43 56.19677 3.98645 15391 ft 168 kts 141°
2026-04-20 16:43 56.18713 3.99843 15384 ft 168 kts 140°
2026-04-20 16:44 56.17750 4.01039 15383 ft 168 kts 140°
2026-04-20 16:44 56.16789 4.02231 15383 ft 168 kts 140°
2026-04-20 16:44 56.15830 4.03421 15383 ft 168 kts 140°
2026-04-20 16:44 56.14869 4.04612 15383 ft 168 kts 140°
2026-04-20 16:45 56.13911 4.05798 15381 ft 168 kts 140°
2026-04-20 16:45 56.12951 4.06987 15381 ft 168 kts 140°
2026-04-20 16:45 56.11992 4.08173 15381 ft 168 kts 140°
2026-04-20 16:45 56.11031 4.09360 15381 ft 168 kts 140°
2026-04-20 16:46 56.10396 4.10145 15378 ft 168 kts 140°
2026-04-20 16:46 56.09435 4.11332 15378 ft 168 kts 140°
2026-04-20 16:46 56.08476 4.12517 15378 ft 168 kts 140°
2026-04-20 16:46 56.07516 4.13700 15378 ft 168 kts 140°
2026-04-20 16:47 56.06555 4.14885 15378 ft 168 kts 140°
2026-04-20 16:47 56.05594 4.16068 15378 ft 168 kts 140°
2026-04-20 16:47 56.04633 4.17251 15378 ft 168 kts 140°
2026-04-20 16:47 56.03672 4.18433 15378 ft 167 kts 140°
2026-04-20 16:48 56.02712 4.19614 15375 ft 167 kts 140°
2026-04-20 16:48 56.01752 4.20795 15375 ft 167 kts 140°
2026-04-20 16:48 56.00792 4.21973 15375 ft 167 kts 140°
2026-04-20 16:48 55.99831 4.23153 15375 ft 167 kts 140°
2026-04-20 16:49 55.98871 4.24330 15375 ft 167 kts 140°
2026-04-20 16:49 55.97910 4.25509 15375 ft 167 kts 140°
2026-04-20 16:49 55.96950 4.26684 15375 ft 167 kts 140°
2026-04-20 16:49 55.95987 4.27863 15375 ft 167 kts 140°
2026-04-20 16:50 55.95026 4.29039 15375 ft 167 kts 141°
2026-04-20 16:50 55.94066 4.30213 15375 ft 167 kts 141°
2026-04-20 16:50 55.93104 4.31389 15375 ft 167 kts 141°
2026-04-20 16:50 55.92142 4.32564 15375 ft 167 kts 141°
2026-04-20 16:51 55.91180 4.33739 15367 ft 167 kts 140°
2026-04-20 16:51 55.90219 4.34911 15367 ft 167 kts 140°
2026-04-20 16:51 55.89258 4.36083 15367 ft 167 kts 141°
2026-04-20 16:51 55.88296 4.37255 15367 ft 167 kts 141°
2026-04-20 16:52 55.87335 4.38424 15367 ft 167 kts 141°
2026-04-20 16:52 55.86374 4.39593 15367 ft 167 kts 141°
2026-04-20 16:52 55.85415 4.40761 15367 ft 167 kts 141°
2026-04-20 16:52 55.84452 4.41931 15367 ft 167 kts 141°
2026-04-20 16:53 55.83491 4.43098 15367 ft 167 kts 141°
2026-04-20 16:53 55.82530 4.44265 15367 ft 167 kts 141°
2026-04-20 16:53 55.81566 4.45434 15367 ft 167 kts 141°
2026-04-20 16:53 55.80605 4.46599 15362 ft 167 kts 141°
2026-04-20 16:54 55.79642 4.47766 15362 ft 167 kts 141°
2026-04-20 16:54 55.78680 4.48931 15362 ft 167 kts 141°
2026-04-20 16:54 55.77717 4.50096 15354 ft 168 kts 140°
2026-04-20 16:54 55.76753 4.51264 15354 ft 168 kts 140°
2026-04-20 16:55 55.75785 4.52433 15354 ft 168 kts 140°
2026-04-20 16:55 55.74815 4.53605 15354 ft 169 kts 140°
2026-04-20 16:55 55.73845 4.54776 15354 ft 169 kts 140°
2026-04-20 16:55 55.72873 4.55948 15355 ft 169 kts 140°
2026-04-20 16:56 55.71900 4.57121 15355 ft 169 kts 140°
2026-04-20 16:56 55.70928 4.58293 15355 ft 169 kts 140°
2026-04-20 16:56 55.69955 4.59465 15355 ft 169 kts 140°
2026-04-20 16:56 55.68982 4.60637 15361 ft 169 kts 141°
2026-04-20 16:57 55.68008 4.61808 15361 ft 169 kts 141°
2026-04-20 16:57 55.67034 4.62980 15361 ft 169 kts 141°
2026-04-20 16:57 55.66060 4.64149 15361 ft 169 kts 141°
2026-04-20 16:57 55.65086 4.65318 15361 ft 169 kts 141°
2026-04-20 16:58 55.64113 4.66486 15361 ft 169 kts 141°
2026-04-20 16:58 55.63138 4.67655 15361 ft 169 kts 141°
2026-04-20 16:58 55.62152 4.68837 15361 ft 169 kts 141°
2026-04-20 16:58 55.61178 4.70004 15358 ft 169 kts 141°
2026-04-20 16:59 55.60203 4.71170 15358 ft 169 kts 141°
2026-04-20 16:59 55.59228 4.72337 15358 ft 169 kts 141°
2026-04-20 16:59 55.58253 4.73503 15355 ft 169 kts 141°
2026-04-20 16:59 55.57279 4.74667 15355 ft 169 kts 141°
2026-04-20 17:00 55.55329 4.76994 15352 ft 169 kts 141°
2026-04-20 17:00 55.54354 4.78157 15352 ft 169 kts 141°
2026-04-20 17:00 55.53380 4.79318 15352 ft 169 kts 141°
2026-04-20 17:01 55.52405 4.80479 15352 ft 169 kts 141°
2026-04-20 17:01 55.51430 4.81640 15352 ft 169 kts 141°
2026-04-20 17:01 55.50455 4.82800 15352 ft 169 kts 141°
2026-04-20 17:01 55.49480 4.83958 15352 ft 169 kts 141°
2026-04-20 17:02 55.48504 4.85118 15352 ft 169 kts 141°
2026-04-20 17:02 55.47528 4.86278 15349 ft 169 kts 141°
2026-04-20 17:02 55.46552 4.87437 15349 ft 169 kts 141°
2026-04-20 17:02 55.45575 4.88595 15349 ft 169 kts 141°
2026-04-20 17:03 55.44599 4.89752 15352 ft 169 kts 141°
2026-04-20 17:03 55.43622 4.90910 15352 ft 169 kts 141°
2026-04-20 17:03 55.42644 4.92067 15352 ft 169 kts 141°
2026-04-20 17:03 55.41663 4.93228 15354 ft 170 kts 141°
2026-04-20 17:04 55.40680 4.94391 15354 ft 170 kts 141°
2026-04-20 17:04 55.39696 4.95554 15358 ft 170 kts 141°
2026-04-20 17:04 55.38712 4.96716 15358 ft 170 kts 141°
2026-04-20 17:04 55.37715 4.97892 15354 ft 170 kts 141°
2026-04-20 17:05 55.36730 4.99055 15349 ft 170 kts 141°
2026-04-20 17:05 55.35745 5.00216 15349 ft 170 kts 141°
2026-04-20 17:05 55.34761 5.01375 15349 ft 170 kts 141°
2026-04-20 17:05 55.33777 5.02534 15349 ft 170 kts 141°
2026-04-20 17:06 55.32792 5.03692 15349 ft 170 kts 141°
2026-04-20 17:06 55.31807 5.04850 15352 ft 170 kts 141°
2026-04-20 17:06 55.30824 5.06007 15353 ft 170 kts 141°
2026-04-20 17:06 55.29839 5.07164 15351 ft 170 kts 141°
2026-04-20 17:07 55.28852 5.08322 15350 ft 170 kts 141°
2026-04-20 17:07 55.27868 5.09477 15346 ft 170 kts 141°
2026-04-20 17:07 55.26882 5.10633 15349 ft 170 kts 141°
2026-04-20 17:07 55.25896 5.11788 15341 ft 170 kts 141°
2026-04-20 17:08 55.24910 5.12943 15341 ft 170 kts 141°
2026-04-20 17:08 55.23925 5.14096 15341 ft 170 kts 141°
2026-04-20 17:08 55.22937 5.15251 15346 ft 170 kts 141°
2026-04-20 17:08 55.21950 5.16404 15341 ft 170 kts 141°
2026-04-20 17:09 55.20965 5.17556 15339 ft 171 kts 141°
2026-04-20 17:09 55.19978 5.18709 15340 ft 171 kts 141°
2026-04-20 17:09 55.18977 5.19876 15342 ft 171 kts 141°
2026-04-20 17:09 55.17989 5.21028 15338 ft 171 kts 141°
2026-04-20 17:10 55.17001 5.22179 15337 ft 171 kts 141°
2026-04-20 17:10 55.16014 5.23329 15337 ft 171 kts 141°
2026-04-20 17:10 55.15026 5.24478 15343 ft 171 kts 141°
2026-04-20 17:10 55.14036 5.25630 15338 ft 171 kts 141°
2026-04-20 17:11 55.13047 5.26780 15334 ft 171 kts 141°
2026-04-20 17:11 55.12059 5.27928 15336 ft 171 kts 141°
2026-04-20 17:11 55.11071 5.29075 15333 ft 170 kts 141°
2026-04-20 17:11 55.10084 5.30221 15336 ft 170 kts 141°
2026-04-20 17:12 55.09098 5.31365 15336 ft 170 kts 141°
2026-04-20 17:12 55.08111 5.32509 15336 ft 170 kts 141°
2026-04-20 17:12 55.07124 5.33652 15333 ft 170 kts 141°
2026-04-20 17:12 55.06136 5.34795 15336 ft 170 kts 141°
2026-04-20 17:13 55.05148 5.35938 15341 ft 170 kts 141°
2026-04-20 17:13 55.04160 5.37081 15338 ft 170 kts 141°
2026-04-20 17:13 55.03172 5.38223 15333 ft 170 kts 142°
2026-04-20 17:13 55.02184 5.39364 15335 ft 171 kts 141°
2026-04-20 17:14 55.01180 5.40522 15338 ft 171 kts 141°
2026-04-20 17:14 55.00189 5.41662 15338 ft 171 kts 142°
2026-04-20 17:14 54.99103 5.42550 15333 ft 174 kts 152°
2026-04-20 17:14 54.97989 5.43365 15333 ft 174 kts 151°
2026-04-20 17:15 54.96878 5.44191 15329 ft 174 kts 151°
2026-04-20 17:15 54.95765 5.45014 15336 ft 174 kts 151°
2026-04-20 17:15 54.94647 5.45839 15321 ft 175 kts 150°
2026-04-20 17:15 54.93528 5.46664 15315 ft 175 kts 150°
2026-04-20 17:16 54.92404 5.47493 15319 ft 175 kts 150°
2026-04-20 17:16 54.91280 5.48320 15318 ft 176 kts 151°
2026-04-20 17:16 54.90535 5.48869 15317 ft 176 kts 150°
2026-04-20 17:16 54.89408 5.49698 15317 ft 176 kts 150°
2026-04-20 17:17 54.88265 5.50539 15334 ft 176 kts 151°
2026-04-20 17:17 54.87136 5.51368 15334 ft 176 kts 151°
2026-04-20 17:17 54.86010 5.52195 15334 ft 176 kts 151°
2026-04-20 17:17 54.84883 5.53021 15331 ft 176 kts 151°
2026-04-20 17:18 54.83757 5.53847 15334 ft 176 kts 151°
2026-04-20 17:18 54.82632 5.54673 15332 ft 176 kts 151°
2026-04-20 17:18 54.81508 5.55496 15329 ft 175 kts 151°
2026-04-20 17:18 54.80384 5.56319 15329 ft 175 kts 151°
2026-04-20 17:19 54.79260 5.57142 15328 ft 175 kts 151°
2026-04-20 17:19 54.78137 5.57964 15331 ft 175 kts 151°
2026-04-20 17:19 54.77013 5.58785 15332 ft 175 kts 151°
2026-04-20 17:19 54.75891 5.59604 15332 ft 175 kts 151°
2026-04-20 17:20 54.74768 5.60424 15330 ft 175 kts 151°
2026-04-20 17:20 54.73645 5.61243 15328 ft 175 kts 151°
2026-04-20 17:20 54.72521 5.62063 15329 ft 175 kts 151°
2026-04-20 17:20 54.71396 5.62882 15323 ft 175 kts 151°
2026-04-20 17:21 54.70272 5.63701 15314 ft 175 kts 151°
2026-04-20 17:21 54.69147 5.64520 15312 ft 175 kts 151°
2026-04-20 17:21 54.68007 5.65349 15318 ft 175 kts 151°
2026-04-20 17:21 54.66882 5.66167 15315 ft 175 kts 151°
2026-04-20 17:22 54.65758 5.66983 15320 ft 175 kts 151°
2026-04-20 17:22 54.64633 5.67800 15319 ft 175 kts 151°
2026-04-20 17:22 54.63507 5.68617 15319 ft 176 kts 151°
2026-04-20 17:22 54.62381 5.69433 15318 ft 175 kts 151°
2026-04-20 17:23 54.61255 5.70250 15316 ft 176 kts 151°
2026-04-20 17:23 54.60128 5.71066 15318 ft 176 kts 151°
2026-04-20 17:23 54.59001 5.71881 15318 ft 175 kts 151°
2026-04-20 17:23 54.57876 5.72695 15315 ft 175 kts 151°
2026-04-20 17:24 54.56753 5.73507 15320 ft 175 kts 151°
2026-04-20 17:24 54.55629 5.74319 15320 ft 175 kts 151°
2026-04-20 17:24 54.54503 5.75132 15316 ft 175 kts 151°
2026-04-20 17:24 54.53380 5.75943 15318 ft 175 kts 151°
2026-04-20 17:25 54.52255 5.76754 15315 ft 175 kts 151°
2026-04-20 17:25 54.51131 5.77565 15313 ft 175 kts 151°
2026-04-20 17:25 54.50005 5.78376 15314 ft 175 kts 151°
2026-04-20 17:25 54.48882 5.79185 15312 ft 175 kts 151°
2026-04-20 17:26 54.47757 5.79994 15314 ft 175 kts 151°
2026-04-20 17:26 54.46631 5.80803 15313 ft 175 kts 151°
2026-04-20 17:26 54.45492 5.81621 15310 ft 175 kts 151°
2026-04-20 17:26 54.44369 5.82428 15310 ft 175 kts 151°
2026-04-20 17:27 54.43244 5.83236 15309 ft 175 kts 151°
2026-04-20 17:27 54.42119 5.84043 15312 ft 175 kts 151°
2026-04-20 17:27 54.40993 5.84851 15311 ft 175 kts 151°
2026-04-20 17:27 54.39867 5.85657 15308 ft 175 kts 151°
2026-04-20 17:28 54.38741 5.86464 15306 ft 175 kts 151°
2026-04-20 17:28 54.37613 5.87270 15307 ft 175 kts 151°
2026-04-20 17:28 54.36486 5.88077 15306 ft 176 kts 151°
2026-04-20 17:28 54.35357 5.88884 15320 ft 176 kts 151°
2026-04-20 17:29 54.34225 5.89693 15306 ft 176 kts 151°
2026-04-20 17:29 54.33093 5.90500 15306 ft 176 kts 151°
2026-04-20 17:29 54.31965 5.91305 15306 ft 176 kts 151°
2026-04-20 17:29 54.30836 5.92110 15306 ft 176 kts 151°
2026-04-20 17:30 54.29707 5.92916 15303 ft 176 kts 151°
2026-04-20 17:30 54.28580 5.93718 15303 ft 176 kts 151°
2026-04-20 17:30 54.27452 5.94521 15303 ft 176 kts 151°
2026-04-20 17:30 54.26325 5.95322 15304 ft 176 kts 151°
2026-04-20 17:31 54.25196 5.96125 15301 ft 176 kts 151°
2026-04-20 17:31 54.24066 5.96928 15301 ft 176 kts 151°
2026-04-20 17:31 54.22923 5.97740 15301 ft 176 kts 151°
2026-04-20 17:31 54.21794 5.98542 15301 ft 176 kts 151°
2026-04-20 17:32 54.20663 5.99343 15300 ft 176 kts 151°
2026-04-20 17:32 54.19533 6.00145 15295 ft 176 kts 151°
2026-04-20 17:32 54.18402 6.00946 15295 ft 176 kts 151°
2026-04-20 17:32 54.17271 6.01746 15295 ft 176 kts 151°
2026-04-20 17:33 54.16139 6.02547 15293 ft 176 kts 151°
2026-04-20 17:33 54.15009 6.03346 15293 ft 176 kts 151°
2026-04-20 17:33 54.13878 6.04146 15293 ft 176 kts 151°
2026-04-20 17:33 54.12746 6.04945 15293 ft 176 kts 151°
2026-04-20 17:34 54.11615 6.05744 15299 ft 176 kts 151°
2026-04-20 17:34 54.10483 6.06542 15299 ft 176 kts 151°
2026-04-20 17:34 54.09352 6.07340 15299 ft 176 kts 151°
2026-04-20 17:34 54.08216 6.08141 15293 ft 177 kts 152°
2026-04-20 17:35 54.07081 6.08939 15293 ft 177 kts 152°
2026-04-20 17:35 54.05946 6.09738 15293 ft 176 kts 152°
2026-04-20 17:35 54.04811 6.10536 15293 ft 176 kts 152°
2026-04-20 17:35 54.03677 6.11334 15292 ft 176 kts 152°
2026-04-20 17:36 54.02529 6.12141 15288 ft 176 kts 152°
2026-04-20 17:36 54.01396 6.12936 15288 ft 176 kts 152°
2026-04-20 17:36 54.00263 6.13731 15289 ft 176 kts 152°
2026-04-20 17:36 53.99130 6.14526 15289 ft 176 kts 152°
2026-04-20 17:37 53.97999 6.15319 15285 ft 176 kts 151°
2026-04-20 17:37 53.96867 6.16112 15285 ft 176 kts 151°
2026-04-20 17:37 53.95733 6.16905 15285 ft 176 kts 152°
2026-04-20 17:37 53.94600 6.17698 15285 ft 176 kts 152°
2026-04-20 17:38 53.93466 6.18491 15282 ft 176 kts 152°
2026-04-20 17:38 53.92333 6.19283 15282 ft 176 kts 152°
2026-04-20 17:38 53.91201 6.20074 15282 ft 176 kts 152°
2026-04-20 17:38 53.90067 6.20865 15282 ft 176 kts 152°
2026-04-20 17:39 53.88934 6.21656 15283 ft 176 kts 152°
2026-04-20 17:39 53.87800 6.22447 15277 ft 176 kts 152°
2026-04-20 17:39 53.86665 6.23237 15277 ft 176 kts 152°
2026-04-20 17:39 53.85531 6.24027 15278 ft 176 kts 152°
2026-04-20 17:40 53.84396 6.24817 15279 ft 176 kts 152°
2026-04-20 17:40 53.83262 6.25605 15279 ft 176 kts 152°
2026-04-20 17:40 53.82128 6.26394 15279 ft 176 kts 152°
2026-04-20 17:40 53.80994 6.27182 15279 ft 176 kts 151°
2026-04-20 17:41 53.79848 6.27977 15272 ft 176 kts 152°
2026-04-20 17:41 53.78715 6.28765 15272 ft 176 kts 152°
2026-04-20 17:41 53.77577 6.29554 15267 ft 177 kts 152°